Temp
-5 -5 -6 -6 -6 -6 -6 -6 -7 -7 -7 -7 -7 -7 -7 -7 -7 -8 -7 -7 -7 -7 -7 -7 -7 -8 -7 -8 -8 -8 -8 -8 -8 -8 -8 -9 -9 -9 -9 -9 -9 -9 -10
-5 -5 -6 -6 -5 -6 -6 -6 -6 -6 -7 -7 -7 -7 -7 -7 -8 -8 -7 -7 -7 -7 -7 -8 -8 -8 -8 -8 -8 -8 -8 -8 -8 -8 -8 -9 -9 -9 -9 -9 -10 -10 -9
-5 -5 -6 -5 -6 -6 -6 -6 -7 -7 -7 -7 -7 -7 -7 -7 -8 -7 -7 -7 -7 -7 -7 -8 -8 -8 -8 -8 -8 -8 -8 -8 -8 -8 -8 -8 -9 -9 -9 -9 -9 -9 -9
-5 -5 -6 -6 -6 -6 -6 -7 -7 -7 -7 -7 -7 -7 -7 -7 -7 -7 -7 -7 -7 -7 -8 -8 -8 -8 -8 -9 -8 -8 -8 -8 -7 -8 -8 -8 -9 -9 -9 -9 -9 -9 -9
-5 -5 -6 -6 -6 -6 -7 -7 -7 -7 -7 -7 -7 -7 -7 -7 -7 -7 -7 -7 -7 -7 -8 -7 -8 -8 -8 -9 -8 -8 -8 -8 -8 -8 -8 -9 -9 -9 -9 -9 -9 -9 -9
-5 -6 -6 -6 -6 -6 -7 -7 -7 -7 -7 -7 -7 -7 -7 -7 -7 -7 -7 -7 -7 -7 -8 -8 -7 -8 -8 -9 -9 -8 -8 -8 -8 -8 -8 -8 -9 -9 -9 -9 -9 -9 -9
-6 -6 -6 -6 -6 -6 -7 -7 -7 -7 -7 -8 -7 -7 -7 -7 -7 -7 -7 -7 -7 -7 -7 -7 -7 -7 -8 -9 -9 -8 -8 -8 -8 -8 -8 -8 -9 -9 -9 -9 -9 -9 -9
-6 -6 -6 -6 -6 -6 -7 -7 -7 -7 -7 -7 -8 -7 -7 -7 -7 -7 -7 -7 -7 -7 -7 -7 -7 -7 -8 -9 -8 -8 -8 -8 -8 -8 -8 -9 -9 -9 -9 -9 -9 -9 -9
-5 -6 -6 -6 -6 -6 -7 -7 -7 -7 -7 -7 -7 -7 -7 -7 -7 -7 -7 -7 -7 -7 -7 -7 -7 -7 -8 -9 -8 -8 -8 -7 -8 -8 -8 -8 -8 -8 -8 -9 -9 -9 -9
-5 -6 -6 -6 -6 -7 -7 -7 -7 -7 -7 -7 -7 -7 -7 -7 -7 -7 -7 -7 -7 -7 -7 -7 -7 -7 -7 -8 -8 -8 -8 -8 -8 -8 -8 -8 -8 -8 -9 -9 -9 -9 -9
-6 -6 -6 -6 -6 -7 -6 -7 -7 -6 -6 -7 -7 -7 -7 -7 -7 -7 -7 -7 -7 -7 -7 -7 -7 -8 -8 -8 -8 -8 -8 -8 -8 -8 -8 -8 -8 -8 -9 -9 -9 -9 -9
-6 -6 -6 -6 -6 -6 -6 -6 -6 -6 -6 -7 -7 -7 -7 -7 -7 -7 -7 -8 -7 -7 -6 -6 -7 -7 -7 -7 -7 -8 -8 -8 -8 -9 -9 -8 -8 -8 -8 -8 -9 -9 -9
-6 -6 -6 -6 -6 -6 -6 -6 -6 -6 -7 -7 -7 -7 -6 -7 -7 -7 -7 -7 -8 -7 -7 -7 -6 -6 -7 -7 -7 -7 -7 -8 -8 -8 -8 -8 -8 -8 -8 -8 -9 -9 -9
-6 -6 -6 -6 -5 -6 -6 -6 -7 -7 -7 -7 -7 -7 -7 -7 -7 -7 -7 -7 -7 -7 -6 -7 -7 -6 -6 -6 -7 -7 -7 -7 -7 -7 -8 -7 -7 -8 -8 -8 -8 -8 -9
-6 -6 -6 -6 -5 -6 -6 -6 -6 -6 -7 -7 -7 -7 -7 -7 -6 -7 -7 -7 -7 -7 -7 -6 -7 -6 -6 -6 -6 -6 -7 -7 -7 -7 -7 -7 -7 -7 -8 -8 -8 -8 -8
-6 -6 -6 -5 -5 -6 -6 -6 -6 -7 -7 -7 -7 -7 -7 -7 -7 -7 -7 -7 -7 -7 -7 -7 -7 -7 -6 -6 -6 -6 -6 -6 -7 -7 -7 -7 -7 -7 -8 -8 -8 -8 -8
-6 -6 -6 -6 -5 -5 -6 -6 -6 -6 -6 -7 -7 -7 -7 -7 -6 -6 -6 -7 -7 -7 -7 -6 -7 -7 -7 -6 -6 -6 -6 -6 -6 -6 -6 -7 -7 -7 -8 -8 -8 -8 -8
-6 -6 -6 -6 -5 -6 -6 -6 -6 -6 -6 -7 -7 -7 -7 -7 -6 -6 -6 -7 -7 -7 -7 -6 -6 -6 -7 -6 -6 -7 -6 -7 -7 -6 -6 -7 -6 -7 -8 -8 -8 -8 -8
-6 -6 -6 -6 -5 -6 -6 -6 -6 -6 -6 -6 -6 -7 -7 -6 -6 -6 -7 -7 -7 -7 -6 -6 -6 -6 -6 -6 -7 -7 -7 -7 -6 -6 -7 -7 -6 -7 -7 -7 -8 -8 -8
-6 -6 -5 -5 -5 -6 -6 -6 -6 -6 -6 -6 -6 -7 -7 -7 -7 -6 -6 -6 -6 -6 -6 -6 -6 -6 -5 -6 -6 -6 -6 -6 -6 -6 -6 -6 -7 -7 -7 -7 -7 -7 -8
-6 -6 -5 -5 -5 -6 -6 -6 -6 -6 -6 -6 -6 -6 -6 -7 -7 -6 -6 -6 -7 -6 -6 -6 -5 -6 -6 -6 -6 -6 -6 -6 -6 -6 -6 -6 -7 -7 -6 -7 -6 -7 -7
-5 -6 -5 -5 -6 -5 -5 -5 -6 -5 -6 -6 -6 -6 -6 -7 -6 -6 -6 -6 -6 -6 -6 -6 -6 -6 -6 -6 -6 -6 -6 -6 -6 -6 -6 -6 -6 -6 -6 -6 -7 -7 -7
-6 -5 -6 -6 -6 -5 -5 -5 -5 -6 -6 -6 -6 -6 -6 -6 -6 -6 -5 -6 -5 -5 -5 -6 -6 -6 -6 -6 -6 -6 -6 -6 -6 -7 -7 -7 -7 -6 -6 -7 -7 -6 -7
-6 -5 -5 -5 -5 -5 -5 -5 -6 -6 -5 -5 -6 -6 -6 -6 -6 -6 -6 -5 -5 -5 -5 -5 -5 -5 -6 -6 -6 -6 -7 -7 -7 -7 -7 -7 -7 -7 -7 -7 -7 -7 -7
-5 -5 -5 -5 -5 -5 -5 -5 -5 -5 -5 -6 -6 -6 -6 -6 -6 -6 -6 -6 -5 -5 -5 -5 -5 -5 -5 -6 -6 -7 -7 -7 -7 -7 -7 -7 -7 -7 -7 -7 -7 -7 -7
-6 -6 -5 -5 -5 -5 -5 -5 -5 -5 -5 -5 -5 -6 -6 -6 -6 -6 -6 -6 -6 -5 -5 -5 -5 -5 -5 -5 -6 -6 -7 -7 -7 -7 -8 -8 -8 -7 -7 -7 -8 -8 -7
Height
5886 5886 5886 5886 5886 5886 5886 5887 5887 5888 5888 5888 5889 5889 5890 5889 5890 5890 5891 5891 5892 5892 5892 5892 5892 5892 5892 5892 5892 5892 5892 5891 5893 5894 5894 5895 5897 5898 5900 5900 5901 5901 5902
5886 5887 5887 5887 5887 5887 5888 5889 5889 5889 5890 5890 5891 5891 5892 5892 5892 5892 5893 5893 5893 5893 5893 5893 5892 5892 5892 5892 5893 5893 5893 5893 5893 5893 5894 5896 5897 5899 5900 5901 5902 5902 5903
5888 5889 5889 5888 5888 5887 5887 5888 5889 5890 5891 5892 5892 5893 5893 5894 5895 5895 5895 5895 5895 5895 5895 5895 5894 5893 5893 5893 5893 5894 5894 5894 5894 5894 5895 5896 5899 5901 5902 5903 5904 5905 5905
5890 5890 5890 5890 5890 5890 5889 5890 5891 5891 5892 5894 5894 5895 5896 5897 5898 5897 5897 5897 5897 5897 5896 5896 5895 5894 5893 5894 5894 5894 5894 5894 5895 5896 5897 5899 5901 5903 5904 5906 5906 5907 5907
5892 5891 5892 5892 5892 5892 5892 5893 5894 5894 5894 5896 5898 5898 5898 5899 5899 5899 5900 5899 5899 5898 5897 5896 5895 5893 5893 5893 5896 5897 5897 5897 5897 5899 5901 5902 5903 5905 5906 5907 5908 5908 5908
5893 5893 5894 5894 5894 5894 5895 5896 5897 5897 5898 5899 5900 5901 5901 5901 5902 5902 5902 5901 5901 5900 5899 5897 5895 5894 5893 5894 5897 5899 5900 5900 5901 5903 5905 5905 5905 5907 5908 5909 5909 5910 5909
5894 5894 5896 5895 5896 5897 5898 5899 5899 5900 5901 5902 5902 5903 5904 5905 5905 5906 5906 5905 5904 5902 5900 5899 5897 5894 5894 5895 5899 5901 5902 5903 5904 5906 5907 5907 5908 5909 5910 5911 5911 5910 5910
5895 5896 5897 5897 5898 5899 5900 5901 5902 5903 5904 5905 5905 5906 5906 5907 5909 5910 5910 5910 5909 5906 5904 5903 5900 5897 5898 5899 5901 5903 5905 5906 5907 5908 5909 5909 5910 5911 5911 5911 5911 5911 5911
5896 5897 5898 5898 5900 5901 5902 5903 5904 5905 5906 5906 5907 5908 5910 5910 5912 5913 5912 5913 5913 5910 5908 5906 5905 5901 5901 5902 5905 5907 5909 5909 5910 5911 5912 5912 5912 5912 5912 5912 5911 5911 5911
5897 5898 5898 5900 5901 5902 5903 5905 5906 5907 5909 5909 5910 5911 5912 5913 5913 5914 5915 5915 5915 5914 5912 5909 5908 5907 5905 5906 5908 5910 5911 5913 5913 5913 5914 5914 5915 5915 5914 5913 5913 5912 5911
5898 5898 5899 5902 5903 5904 5905 5907 5908 5911 5912 5913 5914 5915 5916 5916 5915 5916 5917 5918 5918 5917 5916 5912 5911 5910 5912 5912 5913 5913 5914 5915 5915 5914 5915 5917 5916 5915 5914 5914 5913 5912 5912
5898 5899 5901 5903 5904 5906 5907 5909 5911 5914 5915 5916 5917 5917 5919 5919 5918 5918 5920 5920 5921 5920 5918 5916 5915 5914 5914 5915 5915 5915 5916 5917 5916 5916 5917 5917 5917 5916 5915 5915 5914 5914 5913
5899 5900 5902 5904 5906 5907 5909 5912 5914 5916 5917 5918 5919 5920 5921 5922 5921 5920 5921 5921 5922 5922 5921 5920 5918 5916 5917 5917 5918 5919 5919 5918 5919 5918 5918 5918 5918 5917 5918 5917 5916 5915 5914
5900 5901 5903 5905 5907 5909 5912 5915 5916 5918 5920 5920 5921 5922 5923 5924 5923 5922 5923 5923 5924 5924 5922 5922 5920 5920 5920 5920 5920 5921 5920 5919 5920 5920 5920 5920 5919 5919 5919 5918 5918 5918 5917
5901 5902 5904 5906 5909 5911 5913 5917 5918 5920 5921 5922 5923 5924 5926 5926 5925 5924 5924 5924 5925 5925 5924 5924 5922 5922 5922 5922 5922 5924 5923 5923 5923 5922 5922 5921 5921 5921 5920 5920 5921 5920 5919
5902 5903 5905 5907 5910 5913 5915 5918 5920 5922 5924 5924 5926 5928 5928 5928 5926 5926 5926 5926 5927 5927 5926 5924 5923 5923 5923 5925 5925 5926 5925 5925 5925 5925 5925 5924 5924 5922 5921 5922 5922 5921 5921
5903 5903 5906 5909 5911 5915 5916 5918 5920 5923 5925 5926 5928 5930 5931 5930 5929 5928 5927 5926 5927 5928 5927 5925 5925 5925 5924 5926 5927 5928 5928 5927 5928 5928 5927 5926 5925 5924 5924 5924 5925 5923 5922
5903 5903 5907 5910 5912 5915 5918 5920 5921 5924 5927 5927 5929 5931 5933 5931 5930 5929 5929 5929 5929 5929 5927 5924 5925 5927 5927 5929 5927 5929 5929 5929 5930 5930 5929 5928 5927 5927 5925 5927 5928 5926 5925
5903 5904 5908 5910 5913 5916 5918 5921 5923 5925 5928 5929 5930 5932 5933 5933 5932 5931 5930 5931 5930 5930 5927 5925 5925 5927 5929 5930 5930 5930 5930 5931 5931 5931 5931 5930 5930 5929 5927 5929 5929 5928 5927
5901 5904 5907 5909 5913 5916 5919 5921 5924 5927 5927 5929 5932 5934 5934 5935 5935 5935 5935 5934 5933 5932 5929 5927 5928 5929 5931 5932 5931 5932 5932 5933 5933 5932 5932 5932 5931 5931 5930 5931 5930 5929 5927
5898 5903 5907 5909 5912 5916 5919 5922 5924 5927 5928 5931 5934 5936 5935 5936 5937 5938 5937 5935 5934 5933 5932 5933 5933 5931 5933 5934 5934 5934 5935 5935 5934 5935 5934 5934 5933 5933 5933 5933 5932 5931 5929
5897 5900 5905 5908 5910 5915 5918 5921 5924 5927 5930 5932 5935 5937 5938 5938 5939 5939 5938 5937 5936 5937 5936 5936 5937 5936 5936 5935 5935 5936 5937 5937 5936 5936 5936 5937 5937 5935 5935 5935 5935 5934 5932
5897 5900 5903 5906 5910 5914 5918 5921 5925 5928 5931 5933 5935 5937 5939 5939 5940 5940 5939 5939 5938 5939 5939 5939 5940 5939 5939 5938 5938 5938 5938 5939 5939 5938 5939 5939 5938 5938 5937 5937 5936 5935 5934
5896 5899 5901 5904 5909 5912 5917 5921 5923 5925 5929 5931 5934 5937 5938 5940 5941 5941 5940 5941 5941 5941 5942 5941 5942 5941 5940 5940 5939 5939 5939 5940 5940 5939 5940 5941 5941 5940 5939 5938 5938 5937 5935
5894 5898 5902 5905 5908 5911 5916 5920 5922 5925 5928 5930 5933 5936 5938 5939 5941 5942 5942 5941 5942 5942 5941 5942 5943 5942 5941 5941 5942 5941 5941 5941 5941 5941 5942 5942 5942 5941 5940 5940 5939 5938 5937
5894 5896 5900 5904 5908 5911 5914 5918 5921 5923 5926 5928 5931 5934 5937 5939 5941 5942 5943 5942 5942 5942 5941 5942 5942 5942 5942 5943 5944 5943 5942 5942 5941 5942 5942 5942 5943 5943 5942 5941 5940 5939 5938
Wind_Speed
6 6 7 6 6 6 7 8 10 10 9 8 9 10 11 12 12 12 12 11 9 9 7 5 5 6 6 7 8 7 7 5 6 7 8 9 10 13 12 11 12 11 9
6 5 7 6 7 6 8 10 12 11 10 9 10 11 11 11 12 12 12 12 10 9 7 6 6 5 4 4 6 7 6 6 7 8 9 11 11 12 11 10 9 9 8
5 6 6 7 7 7 9 10 11 11 10 10 10 10 10 10 9 10 10 9 8 8 6 7 6 4 2 1 5 8 8 8 9 10 12 13 12 15 11 10 9 8 8
4 7 7 7 7 8 9 10 10 10 10 9 9 8 10 9 8 8 8 8 9 9 8 8 6 2 2 2 6 7 10 12 13 13 15 14 14 15 13 10 9 8 9
4 9 7 8 7 9 10 11 10 10 9 9 9 10 10 9 8 9 9 9 9 11 10 8 6 4 4 5 9 9 11 15 17 17 16 16 16 14 12 11 8 9 9
5 9 8 8 8 10 11 11 11 10 9 10 10 10 10 9 9 10 10 11 11 10 10 10 10 7 3 9 14 13 15 18 19 17 16 16 15 12 9 8 7 7 8
8 8 8 8 9 11 12 13 12 11 10 11 13 11 10 10 11 12 13 11 10 12 12 13 14 10 8 14 16 16 16 17 17 16 15 15 14 10 8 7 7 7 7
10 9 8 9 11 13 13 14 11 12 13 13 15 14 13 15 15 14 12 11 11 14 17 17 17 19 15 16 17 15 16 17 16 15 13 13 12 10 8 7 7 7 7
7 10 8 10 12 14 14 13 15 15 16 17 19 20 17 17 16 13 12 11 13 15 18 18 19 21 19 18 15 14 14 16 15 14 12 11 11 9 8 7 7 7 7
7 8 10 11 14 14 14 15 18 18 18 20 20 20 15 17 16 14 12 13 14 14 16 18 20 21 21 19 15 12 12 13 14 12 12 12 12 11 9 7 7 7 6
6 8 11 13 14 14 15 19 21 19 20 20 19 17 15 15 16 15 14 14 12 12 14 17 19 21 17 14 14 11 9 9 10 10 8 7 8 9 8 7 7 7 8
8 9 11 14 15 16 19 21 23 20 18 18 17 16 14 13 13 14 9 12 10 11 13 16 18 19 17 14 14 12 10 7 5 8 6 4 6 8 9 9 9 8 8
8 11 12 13 15 20 23 24 24 20 16 20 17 14 13 13 12 13 9 9 9 9 12 12 14 18 17 15 15 15 15 12 11 12 11 9 10 10 10 10 9 10 11
8 10 13 14 18 21 23 24 18 17 13 14 14 11 10 10 11 11 10 11 10 8 11 12 11 13 15 15 14 14 15 14 13 13 13 11 11 10 9 9 10 10 10
9 11 14 16 19 22 23 21 14 15 14 14 11 5 8 8 11 12 11 10 9 10 11 12 11 11 13 14 13 13 14 13 12 12 12 11 11 10 8 8 10 10 11
9 12 14 17 18 21 21 21 15 14 13 14 14 12 7 8 12 11 10 9 10 9 7 8 10 9 10 12 12 13 11 12 11 10 9 9 11 7 7 9 11 11 11
10 13 14 18 19 19 21 18 17 16 15 13 13 10 6 8 10 10 10 9 8 6 5 4 7 8 6 9 11 12 9 9 8 9 7 8 8 9 9 10 11 11 10
9 13 15 19 20 18 17 16 16 16 15 14 12 8 6 7 9 10 8 8 6 8 8 6 6 10 8 9 9 9 7 7 6 6 6 7 8 11 8 11 12 10 11
13 14 17 19 21 19 18 17 16 15 12 13 11 8 7 7 10 9 9 7 8 11 14 11 9 12 12 11 12 9 6 5 5 5 7 7 9 10 9 9 8 9 12
18 19 19 22 22 18 17 18 14 12 11 9 7 6 8 7 8 8 10 12 12 15 19 16 14 14 14 11 9 9 8 7 7 7 10 9 10 11 8 7 8 11 14
23 20 21 21 20 18 19 18 16 13 10 9 7 7 8 7 8 8 10 14 14 16 20 19 16 17 13 10 10 9 9 9 8 9 10 9 9 9 8 8 9 10 12
23 25 24 22 22 22 21 21 17 15 13 11 10 8 8 6 8 9 10 12 14 15 18 18 16 15 12 13 10 10 10 11 10 10 11 10 10 8 7 8 10 10 12
21 24 24 22 22 22 21 19 16 14 14 13 11 11 9 7 7 8 10 11 12 13 16 17 13 13 11 13 11 12 10 8 8 9 8 10 9 8 8 9 10 11 13
23 26 26 25 23 23 21 20 19 18 14 12 11 10 9 7 6 7 7 9 9 11 12 13 10 9 8 6 8 9 7 5 7 8 7 8 8 8 8 10 12 13 13
20 26 24 24 24 24 23 22 21 17 12 11 10 9 8 7 4 4 6 6 7 8 9 9 6 7 7 7 6 7 8 9 9 8 7 9 8 9 9 9 12 15 14
18 23 23 24 22 23 25 22 18 17 14 12 11 11 9 8 5 2 4 4 6 7 6 5 4 5 6 5 4 6 8 9 10 11 11 10 7 7 8 10 12 15 15
Wind_Direction
81 116 137 139 124 113 113 116 116 111 106 100 95 100 99 93 92 100 105 100 103 93 82 77 70 68 66 59 55 51 66 88 123 132 130 125 115 117 114 102 91 84 79
106 127 130 119 96 94 101 107 108 110 108 102 98 105 104 98 94 96 96 97 92 85 83 75 62 54 63 73 72 63 62 77 104 116 114 114 115 119 117 107 88 71 61
102 115 114 95 88 92 91 91 95 96 93 95 98 101 108 100 95 89 88 88 86 74 59 55 55 37 8 119 90 75 79 98 110 116 116 114 114 122 121 99 86 74 57
108 113 111 97 94 95 98 98 98 96 93 96 101 98 96 97 94 93 85 76 69 62 52 47 54 43 75 87 112 86 93 104 108 111 110 105 89 99 99 97 82 64 50
106 118 117 108 106 112 110 109 109 106 98 100 108 99 94 97 102 86 74 69 71 76 70 58 48 43 95 117 117 97 90 100 107 110 111 106 101 98 91 83 69 56 53
121 124 121 118 123 118 116 114 108 97 101 109 112 102 99 92 85 87 91 95 82 75 67 56 48 37 136 119 116 94 100 103 104 107 109 102 100 96 91 85 75 66 52
128 126 125 130 128 121 119 116 107 108 115 118 115 113 109 102 103 107 102 95 82 69 67 64 55 56 116 121 126 108 104 104 104 107 103 99 98 98 87 75 70 61 56
141 133 130 138 128 127 126 118 117 122 117 118 114 111 111 110 107 98 92 79 73 71 63 59 59 67 96 116 118 115 110 110 107 98 97 96 92 84 74 66 67 67 61
148 135 137 139 133 129 126 123 129 125 118 114 113 110 107 106 91 86 86 83 76 71 71 66 64 76 89 110 111 111 105 104 98 93 94 99 93 88 80 75 72 66 59
146 134 139 137 136 132 130 130 131 128 123 116 110 107 104 98 98 97 92 85 80 78 83 75 75 74 87 111 110 94 107 113 105 99 92 93 80 65 65 64 58 47 32
138 138 140 139 137 133 133 137 133 128 120 114 108 104 102 102 104 100 93 73 80 82 81 79 76 82 86 96 108 105 109 115 118 112 105 86 63 57 72 75 66 59 56
140 138 140 144 140 136 137 141 128 125 119 112 105 105 99 98 100 97 97 84 81 82 83 82 81 79 79 93 98 103 116 113 139 136 121 120 82 63 69 74 70 67 60
143 141 144 145 139 140 141 139 129 133 119 112 99 103 91 93 94 92 94 83 91 83 90 88 85 87 89 90 93 96 95 100 109 108 106 113 96 83 74 76 78 79 72
143 144 144 140 138 141 145 135 124 138 115 115 97 117 86 97 94 89 91 80 83 85 88 97 95 89 90 88 91 94 100 106 107 108 107 104 98 96 90 84 74 67 58
145 148 146 138 141 145 147 142 125 114 116 106 106 134 84 95 93 89 94 90 86 84 78 90 97 106 100 98 99 100 102 105 112 108 111 106 91 90 87 70 63 58 51
152 152 148 141 146 149 149 141 127 130 126 119 109 104 94 101 94 93 85 83 80 78 83 89 90 86 100 105 102 101 106 110 108 104 99 90 86 86 81 78 69 65 65
168 159 153 147 151 149 151 146 137 135 128 115 107 108 106 103 89 81 70 54 47 56 64 102 128 113 111 114 116 105 108 101 101 101 94 94 83 73 69 75 77 62 52
181 171 162 156 152 152 155 157 145 139 137 124 116 115 114 98 84 68 59 57 52 56 74 81 104 132 138 103 106 113 119 116 107 103 85 68 68 76 72 60 51 50 44
183 183 170 164 156 160 156 153 146 147 143 128 129 131 117 94 84 77 63 53 61 66 63 70 96 117 123 109 100 110 122 109 99 71 74 71 76 80 65 58 49 41 46
182 188 178 167 162 162 163 152 148 153 135 126 132 137 119 98 97 86 96 93 91 73 62 66 88 104 115 110 103 103 92 90 86 78 81 88 84 81 72 49 34 31 40
179 188 184 174 168 162 165 162 158 157 147 145 140 143 129 116 100 94 92 77 76 69 69 71 84 92 93 104 116 105 98 92 93 85 87 85 84 85 72 63 46 34 28
187 186 187 179 172 174 174 168 165 166 163 165 164 152 148 128 105 93 85 79 71 74 74 72 79 94 108 103 102 99 96 96 87 77 69 68 73 69 69 69 50 39 36
206 187 187 182 184 177 179 169 165 169 174 174 166 162 159 138 105 98 93 88 82 74 71 79 72 77 88 101 106 98 89 77 65 68 63 63 67 77 76 61 51 39 51
205 196 188 186 188 182 182 171 173 183 180 169 167 165 161 144 116 97 89 89 91 86 78 77 73 77 90 90 99 86 66 40 47 52 49 73 71 68 62 55 40 46 52
198 191 191 192 189 182 182 184 184 181 183 181 175 168 169 151 128 98 84 69 73 79 79 84 84 85 75 61 55 72 67 55 69 85 87 74 64 58 56 51 41 32 35
193 192 190 190 195 189 185 189 193 185 183 195 183 174 174 161 147 96 82 65 60 62 58 59 69 79 103 102 86 64 64 53 50 72 74 71 67 61 50 42 38 26 14